Home   Weather   Durango   Past weeks
Flag for USA

Past Weather in Durango, Colorado, USA — Yesterday and Last 2 Weeks

Now
62 °F

Sunny.


Feels Like: 62 °F
Forecast: 62 / 31 °F
Wind: 17 mph from West

Location: Durango-La Plata County Airport

Current Time: Oct 23, 2019 at 5:27:16 pm

Latest Report: Oct 23, 2019 at 4:53 pm


Visibility: 10 mi

Pressure: 29.93 "Hg (23.68 "Hg at 1989m altitude)

Humidity: 14%

Dew Point: 12 °F

Location of DurangoLocation

Past Weather in Durango — Graph

°F

Durango Temperature Yesterday

Maximum temperature yesterday: 60 °F (at 3:53 pm)
Minimum temperature yesterday: 24 °F (at 4:53 am)
Average temperature yesterday: 42 °F

High & Low Weather Summary for the Past Weeks

 TemperatureHumidityPressure
High72 °F (Oct 8, 3:53 pm)100% (Oct 18, 8:53 am)30.45 "Hg (Oct 18, 8:53 am)
Low13 °F (Oct 11, 5:53 am)8% (Oct 10, 1:53 pm)29.64 "Hg (Oct 10, 12:53 am)
Average44 °F32%30.04 "Hg
* Reported Oct 8 3:36 pm — Oct 23 3:53 pm, Durango. Weather by CustomWeather, © 2019

Note: Actual official high and low records may vary slightly from our data, if they occured in-between our weather recording intervals... More about our weather records

Advertising

Durango Weather History for the Previous 24 Hours

Scroll right to see more
 ConditionsComfort  
Time TempWeatherWind HumidityBarometerVisibility
3:53 pm
Wed, Oct 23
63 °FSunny.23 mph13%29.93 "Hg10 mi
2:53 pm64 °FSunny.20 mph17%29.93 "Hg10 mi
1:53 pm57 °FSunny.10 mph27%29.99 "Hg10 mi
12:53 pm53 °FSunny.5 mph32%30.03 "Hg10 mi
11:53 am47 °FSunny.3 mph41%30.09 "Hg10 mi
11:18 am44 °FPassing clouds.No wind45%30.17 "Hg7 mi
10:53 am43 °FSunny.No wind47%30.11 "Hg10 mi
10:38 am43 °FHaze.No wind45%30.17 "Hg2 mi
9:53 am40 °FSunny.No wind51%30.12 "Hg10 mi
8:53 am34 °FSunny.3 mph61%30.13 "Hg10 mi
7:53 am24 °FSunny.No wind77%30.16 "Hg10 mi
6:53 am23 °FClear.7 mph78%30.16 "Hg10 mi
5:53 am28 °FClear.6 mph72%30.10 "Hg10 mi
4:53 am30 °FClear.5 mph66%30.08 "Hg10 mi
3:53 am29 °FClear.5 mph69%30.09 "Hg10 mi
2:53 am29 °FClear.5 mph69%30.12 "Hg10 mi
1:53 am36 °FClear.6 mph57%30.08 "Hg10 mi
12:53 am40 °FClear.3 mph49%30.09 "Hg10 mi
11:53 pm
Tue, Oct 22
43 °FClear.No wind47%30.09 "Hg10 mi
10:53 pm44 °FClear.6 mph45%30.12 "Hg10 mi
9:53 pm48 °FClear.9 mph41%30.11 "Hg10 mi
8:53 pm50 °FClear.13 mph36%30.14 "Hg10 mi
7:53 pm52 °FClear.16 mph32%30.15 "Hg10 mi
6:53 pm53 °FClear.13 mph32%30.15 "Hg10 mi
5:53 pm57 °FSunny.14 mph28%30.14 "Hg10 mi
Weather by CustomWeather, © 2019

See weather overview